ITUPSAT1

Last updated on Wed Sep 17 2025 00:03:09 GMT+0000 (Coordinated Universal Time)

1 35935U 09051E 25258.99260324 .00000832 00000+0 18469-3 0 9990 2 35935 98.4191 156.6559 0008096 18.6586 341.4908 14.59722619848727
UTC large
Height (km)
Speed (km/s)
/
Latitude / Longitude
Inclination (degrees)
Orbital Period (minutes)
Azimuth
Elevation
Range (km)
Doppler Factor

Next 0 passes for location: London (51.5072 / 0.1276)

Sorry there are no passes over London.